Pocatello, ID

3:31 PM MST on January 18, 2018 (GMT -0700)
Pocatello Regional

Weather History for KPIH - December, 2012

Change the Weather History Date:

Saturday, December 8, 2012

  Actual Average Record
Temperature  
Mean Temperature 29 °F 25 °F  
Max Temperature 35 °F 34 °F 59 °F (1939)
Min Temperature 23 °F 17 °F -14 °F (1972)
Degree Days  
Heating Degree Days 36 40  
Month to date heating degree days 203 310  
Since 1 July heating degree days 1654 2038  
Cooling Degree Days 0 0  
Month to date cooling degree days 0 0  
Year to date cooling degree days 560 392  
Moisture  
Dew Point 20 °F    
Average Humidity 69    
Maximum Humidity 81    
Minimum Humidity 56    
Precipitation  
Precipitation T in 0.04 in 0.68 in (1985)
Month to date precipitation 0.58 0.34  
Year to date precipitation 9.87 11.23  
Snow  
Snow 0.00 in - - ()
Month to date snowfall 0.0  
Since 1 July snowfall 7.1  
Snow Depth 0.00 in    
Sea Level Pressure  
Sea Level Pressure 30.03 in    
Wind  
Wind Speed 16 mph (WSW)    
Max Wind Speed 31 mph    
Max Gust Speed 41 mph    
Visibility 10 miles    
Events Snow    
T = Trace of Precipitation, MM = Missing Value Source: NWS Daily Summary

Daily Weather History Graph

Daily Weather History Graph

Search for Another Location

Airport or City:

Trip Planner

Search our weather history database for the weather conditions in past years. The results will help you decide how hot, cold, wet, or windy it might be!

Date:

Astronomy

Dec. 08, 2012 Rise Set
Actual Time 7:49 AM MST 4:55 PM MST
Civil Twilight 7:17 AM MST 5:28 PM MST
Nautical Twilight 6:41 AM MST 6:03 PM MST
Astronomical Twilight 6:07 AM MST 6:37 PM MST
Moon 2:11 AM MST (12/8) 1:33 PM MST (12/8)
Length of Visible Light 10h 10m
Length of Day
9h 06m
Waning Crescent, 27% of the Moon is Illuminated
Dec 8
Waning Crescent
Dec 13
New
Dec 19
First Quarter
Dec 28
Full
Jan 4
Last Quarter

Hourly Weather History & Observations

Time (MST) Temp. Windchill Dew Point Humidity Pressure Visibility Wind Dir Wind Speed Gust Speed Precip Events Conditions
12:53 AM 35.1 °F 23.5 °F 21.9 °F 59% 29.89 in 10.0 mi SW 21.9 mph 31.1 mph N/A   Overcast
1:53 AM 34.0 °F 21.5 °F 23.0 °F 64% 29.86 in 10.0 mi SW 24.2 mph - N/A   Overcast
2:53 AM 33.1 °F 21.9 °F 21.9 °F 64% 29.88 in 10.0 mi WSW 18.4 mph 28.8 mph N/A   Clear
3:53 AM 33.8 °F 21.3 °F 23.0 °F 65% 29.84 in 10.0 mi WSW 24.2 mph 31.1 mph N/A   Partly Cloudy
4:53 AM 32.0 °F 19.5 °F 23.0 °F 69% 29.88 in 10.0 mi WSW 21.9 mph 31.1 mph N/A   Clear
5:53 AM 32.0 °F 18.6 °F 24.1 °F 73% 29.88 in 10.0 mi WSW 25.3 mph 36.8 mph N/A   Mostly Cloudy
6:53 AM 32.0 °F 18.4 °F 24.1 °F 73% 29.89 in 10.0 mi West 26.5 mph 34.5 mph N/A   Overcast
7:53 AM 30.0 °F 20.5 °F 19.0 °F 64% 29.96 in 10.0 mi NW 11.5 mph - N/A   Overcast
8:32 AM 28.4 °F 19.1 °F 15.8 °F 59% 29.92 in 10.0 mi North 10.4 mph 17.3 mph 0.00 in Snow Light Snow
8:53 AM 28.0 °F 20.8 °F 21.0 °F 75% 30.00 in 10.0 mi WNW 6.9 mph - 0.00 in Snow Light Snow
9:53 AM 30.0 °F 17.5 °F 21.0 °F 69% 30.02 in 10.0 mi WSW 19.6 mph 23.0 mph 0.00 in   Mostly Cloudy
10:53 AM 28.9 °F 16.9 °F 21.9 °F 75% 30.05 in 10.0 mi WSW 17.3 mph - N/A   Mostly Cloudy
11:53 AM 30.0 °F 19.1 °F 21.9 °F 72% 30.04 in 10.0 mi WSW 15.0 mph - N/A   Mostly Cloudy
12:53 PM 30.9 °F 19.1 °F 21.0 °F 67% 30.04 in 10.0 mi WSW 18.4 mph - N/A   Mostly Cloudy
1:53 PM 30.9 °F 19.4 °F 19.9 °F 64% 30.04 in 10.0 mi WSW 17.3 mph - N/A   Mostly Cloudy
2:53 PM 28.9 °F 16.9 °F 19.9 °F 69% 30.05 in 10.0 mi WSW 17.3 mph - N/A   Mostly Cloudy
3:53 PM 28.9 °F 17.3 °F 19.9 °F 69% 30.07 in 10.0 mi WSW 16.1 mph - N/A   Mostly Cloudy
4:53 PM 27.0 °F 15.2 °F 19.9 °F 75% 30.09 in 10.0 mi SW 15.0 mph - N/A   Mostly Cloudy
5:53 PM 25.0 °F 13.6 °F 19.0 °F 78% 30.12 in 10.0 mi SW 12.7 mph - N/A   Scattered Clouds
6:53 PM 24.1 °F 14.4 °F 18.0 °F 77% 30.13 in 10.0 mi SSW 9.2 mph - N/A   Clear
7:53 PM 24.1 °F 16.0 °F 18.0 °F 77% 30.16 in 10.0 mi SW 6.9 mph - N/A   Mostly Cloudy
8:53 PM 25.0 °F 14.8 °F 18.0 °F 75% 30.16 in 10.0 mi SW 10.4 mph - N/A   Mostly Cloudy
9:53 PM 23.0 °F 12.4 °F 18.0 °F 81% 30.17 in 10.0 mi SSW 10.4 mph - 0.00 in Snow Light Snow
10:49 PM 24.8 °F 15.3 °F 17.6 °F 74% 30.09 in 10.0 mi SSW 9.2 mph - N/A   Mostly Cloudy
10:53 PM 24.1 °F 13.7 °F 19.0 °F 81% 30.18 in 10.0 mi SSW 10.4 mph - N/A   Mostly Cloudy
11:53 PM 23.0 °F 12.4 °F 17.1 °F 78% 30.19 in 10.0 mi SSW 10.4 mph - N/A   Mostly Cloudy